LRCK Weather Reports


Display with metric or nautical units.
time (UTC)temp
F
wind
direction
speed
MPH
gust
MPH
rain 1hr
in
rain 24hr
in
rain mn
in
humidity
%
barometer
mb
20260901031810 59 360 6.0 0.0 0.00 0.00 0.00 94 1016.0
20260901030316 59 360 6.0 0.0 0.00 0.00 0.00 94 1016.0
20260901024817 59 360 6.0 0.0 0.00 0.00 0.00 94 1016.0
20260901023317 59 360 6.0 0.0 0.00 0.00 0.00 94 1016.0
20260901021814 59 10 5.0 0.0 0.00 0.00 0.00 94 1017.0
20260901020313 59 10 5.0 0.0 0.00 0.00 0.00 94 1017.0
20260901014814 59 20 5.0 0.0 0.00 0.00 0.00 94 1017.0
20260901013317 59 20 5.0 0.0 0.00 0.00 0.00 94 1017.0
20260901011818 61 350 2.0 0.0 0.00 0.00 0.00 94 1017.0
20260901010318 61 350 2.0 0.0 0.00 0.00 0.00 94 1017.0
20260901004817 59 290 5.0 0.0 0.00 0.00 0.00 94 1017.0
20260901003317 59 290 5.0 0.0 0.00 0.00 0.00 94 1017.0
20260901001813 59 270 3.0 0.0 0.00 0.00 0.00 94 1017.0
20260901000317 59 270 3.0 0.0 0.00 0.00 0.00 94 1017.0
20260831234817 61 0 0.0 0.0 0.00 0.00 0.00 94 1017.0
20260831233317 61 0 0.0 0.0 0.00 0.00 0.00 94 1017.0
20260831231818 61 0 0.0 0.0 0.00 0.00 0.00 94 1017.0
20260831230317 61 0 0.0 0.0 0.00 0.00 0.00 94 1017.0
20260831224816 63 0 0.0 0.0 0.00 0.00 0.00 94 1017.0
20260831223317 63 0 0.0 0.0 0.00 0.00 0.00 94 1017.0
20260831221818 61 1.0 0.0 0.00 0.00 0.00 94 1017.0
20260831220317 61 1.0 0.0 0.00 0.00 0.00 94 1017.0
20260831214817 61 100 2.0 0.0 0.00 0.00 0.00 94 1017.0
20260831213317 61 100 2.0 0.0 0.00 0.00 0.00 94 1017.0
20260831211816 63 110 3.0 0.0 0.00 0.00 0.00 94 1017.0
20260831210317 63 110 3.0 0.0 0.00 0.00 0.00 94 1017.0
20260831204818 64 120 1.0 0.0 0.00 0.00 0.00 88 1018.0
20260831203318 64 120 1.0 0.0 0.00 0.00 0.00 88 1018.0
20260831201817 64 150 2.0 0.0 0.00 0.00 0.00 83 1018.0
20260831200316 64 150 2.0 0.0 0.00 0.00 0.00 83 1018.0
20260831194818 64 150 1.0 0.0 0.00 0.00 0.00 83 1017.0
20260831193317 64 150 1.0 0.0 0.00 0.00 0.00 83 1017.0
20260831191818 64 160 3.0 0.0 0.00 0.00 0.00 83 1017.0
20260831190319 64 160 3.0 0.0 0.00 0.00 0.00 83 1017.0
20260831184818 64 2.0 0.0 0.00 0.00 0.00 83 1018.0
20260831183317 64 2.0 0.0 0.00 0.00 0.00 83 1018.0
20260831181818 68 120 3.0 0.0 0.00 0.00 0.00 78 1018.0
20260831180317 68 120 3.0 0.0 0.00 0.00 0.00 78 1018.0
20260831174818 68 100 3.0 0.0 0.00 0.00 0.00 73 1017.0
20260831173318 68 100 3.0 0.0 0.00 0.00 0.00 73 1017.0
20260831171817 70 110 5.0 0.0 0.00 0.00 0.00 69 1017.0
20260831170319 70 110 5.0 0.0 0.00 0.00 0.00 69 1017.0
20260831164817 72 100 5.0 0.0 0.00 0.00 0.00 65 1017.0
20260831163317 72 100 5.0 0.0 0.00 0.00 0.00 65 1017.0
20260831161817 75 100 7.0 0.0 0.00 0.00 0.00 54 1017.0
20260831160317 75 100 7.0 0.0 0.00 0.00 0.00 54 1017.0
20260831154817 77 110 8.0 0.0 0.00 0.00 0.00 44 1017.0
20260831153317 77 110 8.0 0.0 0.00 0.00 0.00 44 1017.0
20260831151818 79 90 10.0 0.0 0.00 0.00 0.00 42 1017.0
20260831150317 79 90 10.0 0.0 0.00 0.00 0.00 42 1017.0
20260831144817 81 110 10.0 0.0 0.00 0.00 0.00 37 1017.0
20260831143318 81 110 10.0 0.0 0.00 0.00 0.00 37 1017.0
20260831141817 81 110 11.0 0.0 0.00 0.00 0.00 32 1018.0
20260831140325 81 110 11.0 0.0 0.00 0.00 0.00 32 1018.0
20260831134818 82 90 11.0 0.0 0.00 0.00 0.00 30 1018.0
20260831133318 82 90 11.0 0.0 0.00 0.00 0.00 30 1018.0
20260831131817 82 80 11.0 0.0 0.00 0.00 0.00 32 1018.0
20260831130318 82 80 11.0 0.0 0.00 0.00 0.00 32 1018.0
20260831124834 82 80 13.0 0.0 0.00 0.00 0.00 25 1018.0
20260831123317 82 80 13.0 0.0 0.00 0.00 0.00 25 1018.0
20260831121818 82 90 14.0 0.0 0.00 0.00 0.00 30 1018.0
20260831120317 82 90 14.0 0.0 0.00 0.00 0.00 30 1018.0
20260831114817 82 80 14.0 0.0 0.00 0.00 0.00 35 1018.0
20260831113317 82 80 14.0 0.0 0.00 0.00 0.00 35 1018.0
20260831111838 82 80 13.0 0.0 0.00 0.00 0.00 40 1018.0
20260831110317 82 80 13.0 0.0 0.00 0.00 0.00 40 1018.0
20260831104818 84 80 13.0 0.0 0.00 0.00 0.00 31 1018.0
20260831103317 84 80 13.0 0.0 0.00 0.00 0.00 31 1018.0
20260831101817 84 100 13.0 0.0 0.00 0.00 0.00 22 1018.0
20260831100317 84 100 13.0 0.0 0.00 0.00 0.00 22 1018.0
20260831094817 84 80 11.0 0.0 0.00 0.00 0.00 25 1019.0
20260831093432 84 80 11.0 0.0 0.00 0.00 0.00 25 1019.0
20260831091817 82 80 9.0 0.0 0.00 0.00 0.00 26 1019.0
20260831090317 82 80 9.0 0.0 0.00 0.00 0.00 26 1019.0
20260831084817 82 60 8.0 0.0 0.00 0.00 0.00 35 1019.0
20260831083317 82 60 8.0 0.0 0.00 0.00 0.00 35 1019.0
20260831081932 81 70 9.0 0.0 0.00 0.00 0.00 39 1019.0
20260831080317 81 70 9.0 0.0 0.00 0.00 0.00 39 1019.0
20260831074833 79 60 9.0 0.0 0.00 0.00 0.00 48 1018.0
20260831073317 79 60 9.0 0.0 0.00 0.00 0.00 48 1018.0
20260831071846 79 50 8.0 0.0 0.00 0.00 0.00 51 1018.0
20260831070318 79 50 8.0 0.0 0.00 0.00 0.00 51 1018.0
20260831064817 77 40 8.0 0.0 0.00 0.00 0.00 61 1018.0
20260831063317 77 40 8.0 0.0 0.00 0.00 0.00 61 1018.0
20260831061818 75 20 8.0 0.0 0.00 0.00 0.00 65 1018.0
20260831060317 75 20 8.0 0.0 0.00 0.00 0.00 65 1018.0
20260831054818 73 20 8.0 0.0 0.00 0.00 0.00 69 1018.0
20260831053317 73 20 8.0 0.0 0.00 0.00 0.00 69 1018.0
20260831051817 70 10 7.0 0.0 0.00 0.00 0.00 73 1018.0
20260831050317 70 10 7.0 0.0 0.00 0.00 0.00 73 1018.0
20260831044819 66 360 7.0 0.0 0.00 0.00 0.00 78 1018.0
20260831043321 66 360 7.0 0.0 0.00 0.00 0.00 78 1018.0
20260831041817 61 360 8.0 0.0 0.00 0.00 0.00 88 1018.0
20260831040317 61 360 8.0 0.0 0.00 0.00 0.00 88 1018.0
20260831034817 63 340 7.0 0.0 0.00 0.00 0.00 88 1018.0
20260831033317 63 340 7.0 0.0 0.00 0.00 0.00 88 1018.0